User: anonymous
Location: NJAA Observatory
(40.6819°N, 74.8979°W)
Time: 05:34:22
(UTC-04:00)
Language:

Cosmos 1328 Rocket - Orbit

View from above orbital plane
View from above orbital plane
View from above satellite
View from above satellite

Ground track
Ground track

The orbit data is extracted from the following two-line orbital elements,

1 12988U 81117B   14106.46081999  .00000576  00000-0  66078-4 0   163
2 12988 082.5246 078.8688 0019773 073.8693 073.0132 14.83997308748068
Epoch (UTC): 16 April 2014 11:03:34
Eccentricity: 0.0019773
inclination: 82.5246°
perigee height: 603 km
apogee height: 630 km
right ascension of ascending node: 78.8688°
argument of perigee: 73.8693°
revolutions per day: 14.83997308
mean anomaly at epoch: 73.0132°
orbit number at epoch: 74806

The dashed part of the orbit path shows where the satellite is in the earth's shadow,  

DLR